SCP
0 0 0 0 0 0 0 0 0 0 0 0 0 0 0 0 0 0 0 0 0 0 0 0 0 0 0 0 0 0 0 0 0 0 0 0 0 0 0 0 0 0 0
0 0 0 0 0 0 0 0 0 0 0 0 0 0 0 0 0 0 0 0 0 0 0 0 0 0 0 0 0 0 0 0 0 0 0 0 0 0 0 0 0 0 0
0 0 0 0 0 0 0 0 0 0 0 0 0 0 0 0 0 0 0 0 0 0 0 0 0 0 0 0 0 0 0 0 0 0 0 0 0 0 0 0 0 0 0
0 0 0 0 0 0 0 0 0 0 0 0 0 0 0 0 0 0 0 0 0 0 0 0 0 0 0 0 0 0 0 0 0 0 0 0 0 0 0 0 0 0 0
0 0 0 0 0 0 0 0 0 0 0 0 0 0 0 0 0 0 0 0 0 0 0 0 0 0 0 0 0 0 0 0 0 0 0 0 0 0 0 0 0 0 0
0 0 0 0 0 0 0 0 0 0 0 0 0 0 0 0 0 0 0 0 0 0 0 0 0 0 0 0 0 0 0 0 0 0 0 0 0 0 0 0 0 0 0
0 0 0 0 0 0 0 0 0 0 0 0 0 0 0 0 0 0 0 0 0 0 0 0 0 0 0 0 0 0 0 0 0 0 0 0 0 0 0 0 0 0 0
0 0 0 0 0 0 0 0 0 0 0 0 0 0 0 0 0 0 0 0 0 0 0 0 0 0 0 0 0 0 0 0 0 0 0 0 0 0 0 0 0 0 0
0 0 0 0 0 0 0 0 0 0 0 0 0 0 0 0 0 0 0 0 0 0 0 0 0 0 0 0 0 0 0 0 0 0 0 0 0 0 0 0 0 0 0
0 0 0 0 0 0 0 0 0 0 0 0 0 0 0 0 0 0 0 0 0 0 0 0 0 0 0 0 0 0 0 0 0 0 0 0 0 0 0 0 0 0 0
0 0 0 0 0 0 0 0 0 0 0 0 0 0 0 0 0 0 0 0 0 0 0 0 0 0 0 0 0 0 0 0 0 0 0 0 0 0 0 0 0 0 0
0 0 0 0 0 0 0 0 0 0 0 0 0 0 0 0 0 0 0 0 0 0 0 0 0 0 0 0 0 0 0 0 0 0 0 0 0 0 0 0 0 0 0
0 0 0 0 0 0 0 0 0 0 0 0 0 0 0 0 0 0 0 0 0 0 0 0 0 0 0 0 0 0 0 0 0 0 0 0 0 0 0 0 0 0 0
0 0 0 0 0 0 0 0 0 0 0 0 0 0 0 0 0 0 0 0 0 0 0 0 0 0 0 0 0 0 0 0 0 0 0 0 0 0 0 0 0 0 0
0 0 0 0 0 0 0 0 0 0 0 0 0 0 0 0 0 0 0 0 0 0 0 0 0 0 0 0 0 0 0 0 0 0 0 0 0 0 0 0 0 0 0
0 0 0 0 0 0 0 0 0 0 0 0 0 0 0 0 0 0 0 0 0 0 0 0 0 0 0 0 0 0 0 0 0 0 0 0 0 0 0 0 0 0 0
0 0 0 0 0 0 0 0 0 0 0 0 0 0 0 0 0 0 0 0 0 0 0 0 0 0 0 0 0 0 0 0 0 0 0 0 0 0 0 0 0 0 0
0 0 0 0 0 0 0 0 0 0 0 0 0 0 0 0 0 0 0 0 0 0 0 0 0 0 0 0 0 0 0 0 0 0 0 0 0 0 0 0 0 0 0
0 0 0 0 0 0 0 0 0 0 0 0 0 0 0 0 0 0 0 0 0 0 0 0 0 0 0 0 0 0 0 0 0 0 0 0 0 0 0 0 0 0 0
0 0 0 0 0 0 0 0 0 0 0 0 0 0 0 0 0 0 0 0 0 0 0 0 0 0 0 0 0 0 0 0 0 0 0 0 0 0 0 0 0 0 0
0 0 0 0 0 0 0 0 0 0 0 0 0 0 0 0 0 0 0 0 0 0 0 0 0 0 0 0 0 0 0 0 0 0 0 0 0 0 0 0 0 0 0
0 0 0 0 0 0 0 0 0 0 0 0 0 0 0 0 0 0 0 0 0 0 0 0 0 0 0 0 0 0 0 0 0 0 0 0 0 0 0 0 0 0 0
0 0 0 0 0 0 0 0 0 0 0 0 0 0 0 0 0 0 0 0 0 0 0 0 0 0 0 0 0 0 0 0 0 0 0 0 0 0 0 0 0 0 0
0 0 0 0 0 0 0 0 0 0 0 0 0 0 0 0 0 0 0 0 0 0 0 0 0 0 0 0 0 0 0 0 0 0 0 0 0 0 0 0 0 0 0
0 0 0 0 0 0 0 0 0 0 0 0 0 0 0 0 0 0 0 0 0 0 0 0 0 0 0 0 0 0 0 0 0 0 0 0 0 0 0 0 0 0 0
0 0 0 0 0 0 0 0 0 0 0 0 0 0 0 0 0 0 0 0 0 0 0 0 0 0 0 0 0 0 0 0 0 0 0 0 0 0 0 0 0 0 0
Wind_Speed
6 5 6 7 7 7 7 8 8 9 9 9 9 10 10 10 9 8 10 10 10 10 10 10 10 11 9 9 9 9 9 9 10 9 7 4 5 6 5 5 5 5 6
5 5 6 7 7 8 8 8 8 9 9 10 10 10 10 10 9 10 10 10 11 11 11 11 11 10 11 10 9 11 10 9 11 11 8 7 6 6 6 6 4 3 4
5 6 7 7 8 8 8 9 9 9 10 10 10 11 11 10 10 10 10 11 11 12 12 12 12 11 11 10 10 11 10 10 10 11 10 7 6 5 5 5 5 3 3
6 6 7 8 8 8 9 9 9 9 10 10 10 11 11 11 11 11 10 11 11 11 12 12 12 12 12 12 10 11 11 11 11 11 10 9 7 6 5 5 4 3 3
6 7 7 7 8 8 9 9 9 10 10 10 10 11 11 10 10 9 10 11 11 12 12 12 12 12 11 10 10 11 10 10 10 10 10 10 8 6 6 5 5 3 3
6 7 7 8 8 9 9 9 9 10 10 10 10 11 11 10 4 3 9 12 12 13 12 12 12 12 14 15 17 17 15 13 12 11 10 10 9 8 6 5 5 4 4
7 7 7 8 9 9 10 10 10 10 10 10 10 11 11 10 6 7 9 12 14 13 13 12 11 10 10 12 15 19 19 20 18 15 14 12 10 9 8 8 6 6 4
7 7 8 8 9 9 9 10 10 9 9 9 10 11 11 10 6 8 9 12 14 14 13 13 12 12 12 11 12 13 14 15 16 16 15 15 13 10 8 9 7 6 4
7 7 8 8 9 9 10 10 9 9 10 10 10 10 11 11 7 8 9 11 11 13 13 12 12 12 8 7 12 14 14 13 13 14 13 12 10 7 6 8 8 6 5
7 7 7 8 9 10 10 10 9 9 10 10 10 10 11 11 6 7 8 10 11 10 10 10 10 11 7 5 11 13 14 14 13 12 14 15 15 14 12 12 10 8 6
6 7 7 8 9 10 10 9 10 10 10 10 11 11 10 10 8 8 9 9 10 10 9 9 6 6 8 8 11 13 13 11 12 13 12 12 13 12 13 14 12 10 7
6 7 8 8 9 8 9 9 10 10 10 10 10 10 9 7 6 5 9 11 11 11 10 9 5 2 5 9 10 11 10 10 11 11 11 11 11 11 11 12 12 12 8
7 8 8 9 8 9 9 10 9 9 9 8 8 9 8 6 4 8 10 12 12 10 9 8 8 7 9 11 15 14 11 11 11 11 11 11 11 10 9 9 11 10 9
8 8 8 8 9 8 7 8 8 8 8 8 8 8 8 7 6 4 4 6 11 11 10 9 12 15 13 12 9 11 11 11 10 11 11 10 9 9 9 9 9 9 8
9 8 8 9 8 7 8 8 9 9 8 9 10 10 9 9 6 6 7 8 8 7 8 9 9 8 8 9 8 8 8 9 11 11 10 10 9 9 9 9 9 9 9
9 9 8 7 6 7 8 8 9 11 10 11 14 13 11 11 11 10 10 11 11 9 8 10 9 8 8 8 7 7 8 9 9 10 10 9 9 9 10 9 9 10 10
10 9 7 7 7 7 7 8 9 8 13 16 17 17 17 15 14 13 12 11 12 9 9 10 10 9 8 8 7 7 7 7 7 8 9 9 9 9 9 10 10 10 10
10 9 9 8 8 8 8 8 8 9 9 8 10 16 17 16 15 14 11 9 9 9 10 10 9 8 8 8 7 7 7 6 7 8 9 9 9 9 10 10 10 11 10
10 9 8 8 8 8 8 8 8 9 9 9 8 6 11 13 14 13 9 8 9 8 8 8 8 8 8 7 7 7 7 6 7 7 8 9 8 9 9 10 10 11 10
10 11 9 8 8 8 8 8 8 8 9 8 8 8 5 6 7 5 6 7 7 8 7 8 8 8 7 6 6 7 7 7 7 7 7 8 8 8 9 11 10 10 10
9 8 11 9 10 9 8 8 8 8 8 8 8 4 3 8 8 8 6 6 6 7 7 7 7 7 7 6 6 7 9 8 7 7 8 8 8 8 8 9 9 9 9
9 8 8 8 8 7 7 8 8 8 8 9 8 4 4 6 6 6 6 5 6 6 6 6 6 6 6 6 6 7 7 8 8 8 8 8 8 8 8 8 9 9 9
9 9 8 7 8 7 7 8 8 8 8 8 7 6 5 5 6 6 6 6 5 5 5 6 6 6 6 6 6 6 7 7 6 7 7 8 8 8 8 9 10 10 10
9 9 9 8 8 7 7 7 7 7 7 7 7 6 6 5 5 6 6 6 6 5 4 5 5 7 9 7 6 6 6 6 6 6 9 9 8 8 8 8 9 10 10
9 8 7 7 7 7 7 7 6 6 6 6 6 5 5 5 5 5 5 6 7 5 6 5 4 6 8 9 9 7 4 3 5 6 7 7 9 9 9 9 8 9 9
8 7 7 6 5 6 6 5 5 5 6 5 5 5 5 5 5 5 5 6 6 6 6 5 6 7 9 8 8 6 3 3 5 5 7 7 8 8 9 8 10 10 10
Wind_Direction
261 270 280 281 283 281 279 283 288 290 291 285 284 284 282 279 276 271 271 276 269 269 268 264 261 268 273 274 267 262 260 261 268 273 273 271 278 286 287 280 270 240 221
265 271 275 280 281 282 284 288 288 287 286 287 285 283 281 279 276 272 271 272 270 268 267 266 264 262 259 263 268 267 264 265 267 272 274 271 264 274 273 271 269 256 227
266 269 275 279 283 285 289 290 290 288 287 288 286 283 282 281 277 273 272 272 270 269 267 264 262 262 262 262 263 266 265 258 255 262 264 263 262 260 267 261 254 247 235
272 275 279 283 289 292 291 290 289 289 289 288 287 286 284 281 277 273 272 272 271 269 266 263 261 259 258 260 260 259 262 266 261 259 261 257 251 248 251 254 246 230 216
270 276 282 285 288 289 291 291 291 290 288 288 287 285 282 278 271 277 281 278 276 273 268 262 258 258 266 268 271 269 263 258 260 254 254 254 248 242 245 244 246 232 220
265 277 287 290 288 291 293 292 292 290 288 287 284 284 282 279 302 293 279 283 280 275 272 268 264 248 241 238 248 260 269 269 268 267 260 256 256 250 246 248 244 230 223
267 277 284 286 287 292 296 296 295 293 289 287 285 284 283 283 269 250 254 272 275 274 273 271 268 265 248 247 236 232 241 246 253 265 270 269 266 254 251 246 237 240 236
269 277 284 286 288 293 295 294 294 291 290 288 287 286 285 283 257 242 250 262 267 270 269 268 267 270 266 264 264 255 248 239 232 234 248 259 264 274 263 255 259 247 238
269 277 283 288 291 292 293 295 295 292 289 288 286 287 285 284 259 235 247 273 269 270 270 269 269 269 265 244 258 262 261 257 245 237 246 257 277 288 288 266 243 230 224
273 280 285 285 287 290 292 293 292 289 286 287 289 288 286 284 269 224 233 269 274 276 274 269 256 252 270 242 256 257 256 255 256 240 226 235 243 242 233 245 250 235 224
276 278 277 279 282 283 286 286 286 285 288 289 288 285 280 276 267 229 225 264 281 284 283 279 277 196 223 233 246 257 261 270 264 255 247 235 229 229 226 221 229 239 228
265 268 272 276 282 288 285 283 282 283 282 280 281 284 282 273 258 237 213 238 270 280 280 281 290 174 231 242 243 251 255 261 257 253 246 239 231 225 222 221 218 226 232
254 261 268 275 279 281 280 281 279 275 277 284 289 291 294 297 268 211 221 232 238 255 274 292 295 270 260 248 237 238 239 239 240 242 241 238 235 231 226 218 218 216 219
250 259 263 267 271 273 276 276 279 284 285 288 290 293 297 297 296 296 270 240 225 237 256 261 243 243 246 260 253 222 228 235 235 238 242 243 241 232 222 217 212 201 200
248 254 260 266 272 280 275 275 281 285 296 294 297 299 300 300 334 0 315 303 306 319 312 284 274 263 249 242 242 237 231 228 227 233 237 238 236 233 226 216 214 205 202
244 249 257 264 270 274 279 277 243 240 253 246 250 263 281 279 289 289 278 271 270 273 275 270 271 268 264 259 254 245 231 228 228 229 229 230 230 229 225 217 211 210 206
241 253 261 266 269 270 274 281 288 263 232 235 239 240 245 265 276 276 272 269 260 241 246 258 264 266 262 258 257 252 244 233 229 228 227 226 226 225 224 219 212 210 207
237 243 244 255 262 267 272 277 282 289 293 283 243 227 233 243 253 258 259 263 254 227 244 257 263 265 262 258 255 251 246 237 230 228 225 225 224 222 219 219 215 211 205
236 243 240 251 259 263 267 271 274 278 281 287 294 261 217 229 235 240 232 247 271 273 263 262 265 265 260 256 253 250 244 235 232 228 225 222 220 220 220 218 217 208 205
239 240 243 250 257 259 261 265 272 277 282 286 289 292 300 296 287 259 234 257 273 280 278 272 270 269 267 258 250 245 241 235 231 228 224 220 220 220 219 218 215 209 204
253 237 209 233 250 258 265 269 275 279 282 286 289 304 331 304 299 297 291 282 283 288 286 279 276 269 262 255 248 243 240 237 232 227 221 216 215 218 218 220 218 214 207
258 254 242 239 248 253 263 269 272 276 279 283 288 276 207 272 296 301 302 297 293 294 293 286 278 272 265 258 252 250 247 241 234 227 221 218 215 217 215 213 213 210 206
262 257 252 247 249 244 245 257 265 272 276 282 287 296 298 304 306 305 307 308 303 300 301 297 289 283 276 265 257 253 254 253 244 233 224 218 215 213 215 212 208 203 202
270 259 255 254 250 253 254 258 263 270 276 282 289 296 303 306 303 307 308 308 304 302 305 303 300 299 295 286 272 261 259 267 267 250 235 228 219 213 210 211 210 202 200
269 258 255 256 259 259 260 264 268 275 281 286 292 302 307 307 307 309 311 306 306 310 312 308 301 298 295 292 287 280 277 263 268 275 252 236 225 219 214 208 207 202 196
274 267 263 261 258 262 263 265 275 283 285 287 296 302 305 308 311 315 318 317 321 323 319 311 305 301 296 290 294 303 284 247 247 261 265 246 230 220 213 208 204 200 194